Regional Weather Roundup
Issued by NWS Northern Indiana

Home | Current Version | Previous Version | Graphics & Text | Print | Product List | Glossary On
Versions: 1 2 3 4 5 6 7 8 9 10 11 12 13 14 15 16 17 18 19 20 21 22 23 24 25 26 27 28 29 30 31 32 33 34 35 36 37 38 39 40 41 42 43 44 45 46 47 48 49 50
000
ASUS43 KIWX 110410
RWRIWX

KIWX WEATHER ROUNDUP
NATIONAL WEATHER SERVICE NORTHERN INDIANA
1100 PM EST WED FEB 10 2016

NOTE: "FAIR" INDICATES FEW OR NO CLOUDS BELOW 12,000 FEET WITH NO
SIGNIFICANT WEATHER AND/OR OBSTRUCTIONS TO VISIBILITY.

* THESE STATIONS ARE NOT UNDER NWS QUALITY CONTROL. THEY ALSO MAY NOT
  REPORT WEATHER SUCH AS PRECIPITATION OR FOG.

INZ001>027-110500-
NORTHERN INDIANA

CITY           SKY/WX    TMP DP  RH WIND       PRES   REMARKS
GARY*          CLOUDY    17   2  52 W9        30.16R WCI   5
VALPARAISO     LGT SNOW  15   8  73 W10       30.13R WCI   2
MICHIGAN CITY* CLOUDY    18  10  73 W7        30.13R WCI   8
LAPORTE*       FLURRIES  17  10  73 W5        30.12R WCI  10
KNOX*          CLOUDY    16  10  79 W8        30.13R WCI   5
SOUTH BEND     LGT SNOW  13  11  92 SW7       30.11R VSB 3/4 WCI   3
GOSHEN         CLOUDY    14   8  77 W12       30.09R WCI   0
MONTICELLO*    CLOUDY    15   4  60 NW7       30.14R WCI   5
LOGANSPORT*    CLOUDY    18   3  53 NW5       30.14R WCI  11
ROCHESTER*     CLOUDY    18   9  68 W7        30.12R WCI   8
WARSAW*        CLOUDY    14  10  85 W9        30.09S WCI   2
ANGOLA*        CLOUDY    12   9  85 W5        30.03S WCI   4
FORT WAYNE     PTCLDY    15   4  61 W10       30.09R WCI   2
HUNTINGTON*    CLEAR     11  -1  59 W8        30.10R WCI  -1
PERU/GRISSOM   CLOUDY    15  10  77 NW6       30.11R WCI   7
MARION*        CLOUDY    14   6  69 CALM      30.13R

$$
INZ028>050-110500-
CENTRAL INDIANA

CITY           SKY/WX    TMP DP  RH WIND       PRES   REMARKS
LAFAYETTE      CLEAR      9   4  80 NW7       30.15R WCI  -2
KOKOMO*        CLOUDY    16   9  73 NW6       30.12R WCI   7
MUNCIE*        CLOUDY    16   6  65 W8        30.11R WCI   5
INDIANAPOLIS   MOCLDY    12   5  73 NW6       30.13R WCI   3

$$
MIZ043>046-050>051-056>058-064>065-071>073-077>080-110500-
SOUTHWEST LOWER MICHIGAN

CITY           SKY/WX    TMP DP  RH WIND       PRES   REMARKS
BATTLE CREEK   PTCLDY    10   2  69 NW6       30.04S WCI   0
BENTON HARBOR  FLURRIES  19   9  65 NW8       30.10R WCI   9
COLDWATER*     CLOUDY    13   5  69 NW5       30.04S WCI   6
HILLSDALE*     CLEAR     12   2  64 NW9       30.01R WCI  -1
HOLLAND        LGT SNOW  16  10  77 VRB5      30.08R WCI   9
GRAND RAPIDS   FLURRIES  15   8  73 NW9       30.05R WCI   3
KALAMAZOO      CLOUDY    13   5  70 W5        30.06R WCI   5
STURGIS*       CLOUDY    14   8  79 W3        30.05R
THREE RIVERS*  CLOUDY    15  10  81 W6        30.07S WCI   6

$$
OHZ001>008-015>018-024>025-110500-
NORTHWEST OHIO

CITY           SKY/WX    TMP DP  RH WIND       PRES   REMARKS
DEFIANCE       CLOUDY    16   9  74 VRB6      30.07R WCI   7
FINDLAY        CLOUDY    17   9  70 W16       30.04R WCI   2
TOLEDO EXPRESS PTCLDY    14   6  70 NW10      30.04R WCI   1
TOLEDO METCALF CLOUDY    17   4  56 NW16      30.04R WCI   2
LIMA           CLOUDY    14   7  73 W16       30.06R WCI  -2

$$
AND FOR LAKE MICHIGAN COASTAL AND OPEN LAKE BUOY OBSERVATIONS

STATION/POSITION TEMP    WIND        PRES    VSBY  WAVE
                 AIR SEA DIR/SP/G                  HT/PER
                 (F)     (DEG/KT/KT) (MB)    (MI)  (FT/S)
CALUMET HARBOR    14                 1020.3
MICHIGAN CITY     17     280/ 11/ 14   N/A
BURNS HARBOR      18     310/ 12/ 18 1020.7R
SAINT JOSEPH      20     280/ 12/ 16 1020.0R

$$
&&



USA.gov is the U.S. government's official web portal to all federal, state and local government web resources and services.